カタログに戻る

SHIYAN 30 01

運用中科学VLEO
NORAD 65851·PAYLOAD·🇨🇳 China

打ち上げ Sep 29, 2025 から Xichang Satellite Launch Center

Loading…

次のパス (今後24時間)

TLE

最新Source: Space-Track

元期: Sep 14, 2026, 18:26 UTC

1 65851U 25222A   26257.76838396  .00001394  00000-0  13772-3 0  9990
2 65851  34.9879  85.0909 0001841 201.1344 158.9285 14.91958756 52423

AllMySatでSHIYAN 30 01をリアルタイム追跡

Download on the App Store